Overview Statistics Trail Chart Weather Telemetry Raw packets
 

This is the latest recevied weather packets stored in our database for station/object KO4DYK. If no packets are shown the sender has not sent any weather packets the latest 10 day(s).

<< 18 19 20 21 22 23 24 >>
Time Temp. Humidity Pressure Rain* Wind** Luminosity Snow
1788531725 33.89° C 68% 1018 hPa 0 mm - 315 W/m² -
1788531425 33.33° C 70% 1018 hPa 0 mm - 298 W/m² -
1788531120 32.78° C 75% 1017.9 hPa 0 mm - 281 W/m² -
1788530816 32.22° C 75% 1017.9 hPa 0 mm - 240 W/m² -
1788530511 31.11° C 77% 1018 hPa 0 mm - 251 W/m² -
1788530210 30.56° C 80% 1018.1 hPa 0 mm - 252 W/m² -
1788529906 29.44° C 81% 1018 hPa 0 mm - 233 W/m² -
1788529601 28.89° C 82% 1018 hPa 0 mm - 185 W/m² -
1788529301 28.33° C 84% 1018.1 hPa 0 mm - 168 W/m² -
1788528996 27.78° C 87% 1017.8 hPa 0 mm - 197 W/m² -
1788528692 27.22° C 91% 1017.9 hPa 0 mm - 166 W/m² -
1788528391 26.67° C 93% 1018 hPa 0 mm - 164 W/m² -
1788528086 26.11° C 96% 1017.8 hPa 0 mm - 86 W/m² -
1788527785 25.56° C 97% 1018 hPa 0 mm - 72 W/m² -
1788527481 25° C 98% 1018.1 hPa 0 mm - 67 W/m² -
1788527180 25° C 99% 1017.9 hPa 0 mm - 63 W/m² -
1788526875 25° C 99% 1017.9 hPa 0 mm - 60 W/m² -
1788526573 24.44° C 99% 1018 hPa 0 mm - 57 W/m² -
1788526273 24.44° C 99% 1018 hPa 0 mm - 52 W/m² -
1788525968 23.89° C 99% 1017.6 hPa 0 mm - 48 W/m² -
1788525663 23.89° C 99% 1017.7 hPa 0 mm - 44 W/m² -
1788525357 23.89° C 99% 1017.6 hPa 0 mm - 39 W/m² -
1788525054 23.33° C 99% 1017.6 hPa 0 mm - 35 W/m² -
1788524754 22.78° C 99% 1017.7 hPa 0 mm - 33 W/m² -
1788524448 22.78° C 99% 1017.8 hPa 0 mm - 31 W/m² -

* Rain latest hour (hover to see other rain measurements)
** Current wind speed in m/s (hover to see current wind gust speed)